Moab, UT

3:56 AM MST on November 22, 2019 (GMT -0700)
Canyonlands

Weather History for KCNY - May, 2019

Change the Weather History Date:

Sunday, May 5, 2019

  Actual Average Record
Temperature  
Mean Temperature 63 °F 59 °F  
Max Temperature 79 °F 74 °F 91 °F (1992)
Min Temperature 47 °F 44 °F 31 °F (1938)
Degree Days  
Heating Degree Days 2 7  
Month to date heating degree days 50 37  
Since 1 July heating degree days 5620 5462  
Cooling Degree Days 0 1  
Month to date cooling degree days 0 3  
Year to date cooling degree days 2 6  
Growing Degree Days 12 (Base 50)    
Moisture  
Dew Point 36 °F    
Average Humidity 46    
Maximum Humidity 76    
Minimum Humidity 15    
Precipitation  
Precipitation T in 0.02 in 0.80 in (1942)
Month to date precipitation T 0.11  
Year to date precipitation 4.99 2.73  
Sea Level Pressure  
Sea Level Pressure 29.73 in    
Wind  
Wind Speed 4 mph (NNW)    
Max Wind Speed 30 mph    
Max Gust Speed 45 mph    
Visibility 10 miles    
Events Rain    
T = Trace of Precipitation, MM = Missing Value Source: NWS Daily Summary

Daily Weather History Graph

Daily Weather History Graph

Search for Another Location

Airport or City:

Astronomy

May. 05, 2019 Rise Set
Actual Time 6:17 AM MDT 8:14 PM MDT
Civil Twilight 5:48 AM MDT 8:44 PM MDT
Nautical Twilight 5:12 AM MDT 9:19 PM MDT
Astronomical Twilight 4:34 AM MDT 9:57 PM MDT
Moon 7:03 AM MDT (5/5) 9:11 PM MDT (5/5)
Length of Visible Light 14h 56m
Length of Day
13h 57m
New Moon, 1% of the Moon is Illuminated
May 5
New Moon
May 11
First Quarter
May 18
Full
May 26
Last Quarter
Jun 3
New

Hourly Weather History & Observations

Time (MDT) Temp. Dew Point Humidity Pressure Visibility Wind Dir Wind Speed Gust Speed Precip Events Conditions
12:53 AM 55.0 °F 37.0 °F 51% 29.78 in 10.0 mi NNE 3.5 mph - N/A   Clear
1:53 AM 53.1 °F 37.0 °F 55% 29.76 in 10.0 mi NW 5.8 mph - N/A   Clear
2:53 AM 53.1 °F 36.0 °F 52% 29.76 in 10.0 mi Calm Calm - N/A   Clear
3:53 AM 50.0 °F 37.9 °F 63% 29.76 in 10.0 mi Calm Calm - N/A   Clear
4:53 AM 50.0 °F 37.0 °F 61% 29.76 in 10.0 mi WSW 3.5 mph - N/A   Clear
5:53 AM 48.9 °F 37.0 °F 64% 29.76 in 10.0 mi West 4.6 mph - N/A   Clear
6:53 AM 46.9 °F 39.0 °F 74% 29.79 in 10.0 mi Calm Calm - N/A   Clear
7:53 AM 55.0 °F 41.0 °F 59% 29.79 in 10.0 mi Calm Calm - N/A   Clear
8:53 AM 60.1 °F 36.0 °F 41% 29.78 in 10.0 mi Calm Calm - N/A   Clear
9:53 AM 64.9 °F 37.0 °F 36% 29.77 in 10.0 mi ESE 3.5 mph - N/A   Clear
10:53 AM 69.1 °F 36.0 °F 30% 29.75 in 10.0 mi Variable 4.6 mph - N/A   Clear
11:53 AM 71.1 °F 34.0 °F 26% 29.75 in 10.0 mi East 4.6 mph - N/A   Clear
12:53 PM 73.0 °F 34.0 °F 24% 29.72 in 10.0 mi Calm Calm - N/A   Clear
1:53 PM 75.9 °F 32.0 °F 20% 29.68 in 10.0 mi Calm Calm - N/A   Partly Cloudy
2:53 PM 78.1 °F 27.0 °F 15% 29.65 in 10.0 mi North - - N/A   Mostly Cloudy
3:53 PM 75.0 °F 26.1 °F 16% 29.66 in 10.0 mi WNW 8.1 mph - N/A   Mostly Cloudy
4:15 PM 68.0 °F 37.9 °F 33% 29.82 in 10.0 mi WNW 29.9 mph 43.7 mph 0.00 in Rain Light Rain
4:53 PM 68.0 °F 37.9 °F 33% 29.70 in 10.0 mi NNW 19.6 mph - 0.00 in   Mostly Cloudy
5:53 PM 69.1 °F 35.1 °F 29% 29.72 in 10.0 mi North 11.5 mph - N/A   Clear
6:53 PM 68.0 °F 35.1 °F 30% 29.69 in 10.0 mi NNW 15.0 mph - N/A   Scattered Clouds
7:53 PM 66.0 °F 34.0 °F 30% 29.68 in 10.0 mi NNE 3.5 mph - N/A   Clear
8:53 PM 62.1 °F 36.0 °F 38% 29.69 in 10.0 mi SE 6.9 mph - N/A   Clear
9:53 PM 62.1 °F 36.0 °F 38% 29.70 in 10.0 mi Calm Calm - N/A   Clear
10:53 PM 60.1 °F 34.0 °F 38% 29.70 in 10.0 mi Calm Calm - N/A   Clear
11:53 PM 54.0 °F 37.9 °F 55% 29.70 in 10.0 mi WSW 5.8 mph - N/A   Clear